TimeEDT,TemperatureF,Dew PointF,Humidity,Sea Level PressureIn,VisibilityMPH,Wind Direction,Wind SpeedMPH,Gust SpeedMPH,PrecipitationIn,Events,Conditions,WindDirDegrees,DateUTC
12:53 AM,71.1,64.9,81,29.69,6.0,WNW,3.5,-,N/A,,Haze,290,2013-07-24 04:53:00
1:53 AM,69.1,64.9,87,29.68,5.0,Calm,Calm,-,N/A,,Clear,0,2013-07-24 05:53:00
2:53 AM,70.0,66.0,87,29.67,5.0,North,3.5,-,N/A,,Clear,360,2013-07-24 06:53:00
3:53 AM,70.0,64.9,84,29.68,5.0,West,3.5,-,N/A,,Haze,270,2013-07-24 07:53:00
4:53 AM,68.0,64.9,90,29.69,4.0,Calm,Calm,-,N/A,,Clear,0,2013-07-24 08:53:00
5:53 AM,66.9,64.0,90,29.70,4.0,NW,3.5,-,N/A,,Clear,310,2013-07-24 09:53:00
6:10 AM,66.2,64.4,94,29.71,2.5,Calm,Calm,-,N/A,,Clear,0,2013-07-24 10:10:00
6:17 AM,68.0,64.4,88,29.71,4.0,WSW,3.5,-,N/A,,Clear,250,2013-07-24 10:17:00
6:53 AM,69.1,66.0,90,29.72,4.0,WSW,3.5,-,N/A,,Clear,250,2013-07-24 10:53:00
7:53 AM,71.1,64.9,81,29.75,5.0,West,5.8,-,N/A,,Haze,270,2013-07-24 11:53:00
8:53 AM,73.9,64.9,73,29.76,7.0,WNW,11.5,-,N/A,,Clear,300,2013-07-24 12:53:00
9:53 AM,75.0,64.9,71,29.78,8.0,NW,11.5,-,N/A,,Overcast,320,2013-07-24 13:53:00
10:53 AM,75.0,64.9,71,29.79,8.0,NNW,11.5,-,N/A,,Mostly Cloudy,330,2013-07-24 14:53:00
11:40 AM,75.2,64.4,69,29.81,10.0,North,11.5,18.4,N/A,,Mostly Cloudy,360,2013-07-24 15:40:00
11:53 AM,73.9,64.0,71,29.81,10.0,NNE,10.4,-,N/A,,Overcast,20,2013-07-24 15:53:00
12:53 PM,75.0,63.0,66,29.82,10.0,North,8.1,-,N/A,,Overcast,350,2013-07-24 16:53:00
1:14 PM,75.2,62.6,65,29.83,10.0,North,9.2,-,N/A,,Mostly Cloudy,350,2013-07-24 17:14:00
1:53 PM,75.9,61.0,60,29.82,10.0,North,6.9,-,N/A,,Scattered Clouds,350,2013-07-24 17:53:00
2:53 PM,78.1,60.1,54,29.83,10.0,NNW,9.2,-,N/A,,Partly Cloudy,330,2013-07-24 18:53:00
3:53 PM,78.1,60.1,54,29.82,10.0,NNW,9.2,-,N/A,,Partly Cloudy,330,2013-07-24 19:53:00
4:53 PM,79.0,59.0,50,29.83,10.0,North,9.2,-,N/A,,Partly Cloudy,360,2013-07-24 20:53:00
5:53 PM,77.0,55.9,48,29.84,10.0,North,11.5,-,N/A,,Clear,360,2013-07-24 21:53:00
6:53 PM,75.0,55.0,50,29.85,10.0,North,10.4,-,N/A,,Clear,350,2013-07-24 22:53:00
7:53 PM,72.0,54.0,53,29.87,10.0,North,11.5,-,N/A,,Clear,350,2013-07-24 23:53:00
8:53 PM,69.1,54.0,58,29.90,10.0,North,9.2,-,N/A,,Clear,350,2013-07-25 00:53:00
9:53 PM,66.9,53.1,61,29.94,10.0,NE,11.5,-,N/A,,Mostly Cloudy,40,2013-07-25 01:53:00
10:53 PM,64.9,51.1,61,29.96,10.0,NE,6.9,-,N/A,,Partly Cloudy,40,2013-07-25 02:53:00
11:53 PM,63.0,50.0,63,29.96,10.0,NE,6.9,-,N/A,,Clear,40,2013-07-25 03:53:00